Вернуться в каталог

CZ-6A DEB

АктивенPO
NORAD 61109·DEBRIS·🇨🇳 China

Запущен Aug 6, 2024 с Taiyuan Satellite Launch Center

Loading…

Ближайшие Пролёты (ближайшие 24 часа)

TLE

СвежийSource: Space-Track

Эпоха: Sep 14, 2026, 07:23 UTC

1 61109U 24140PB  26257.30766632  .00000182  00000-0  77686-4 0  9992
2 61109  89.0736 271.6210 0041697 279.7105  79.9377 14.20575027105099

Отслеживайте CZ-6A DEB в реальном времени с AllMySat

Download on the App Store